Home   Weather   Tampa   Past weeks

Flag for USA Past Weather in Tampa, Florida, USA — Yesterday and Last 2 Weeks

Now
73 °F

Sunny.


Feels Like: 75 °F
Forecast: 62 / 76 °F
Wind: 8 mph from Northwest

Location: Tampa, Peter O Knight Airport

Current Time: Dec 7, 2016 at 5:18:40 pm

Latest Report: Dec 7, 2016 at 4:55 pm


Visibility: 10 mi

Pressure: 30.07 "Hg

Humidity: 74%

Dew Point: 64 °F

Location of TampaLocation

Past Weather in Tampa — Graph

°F

Tampa Temperature Yesterday

Maximum temperature yesterday: 82 °F (at 10:55 am)
Minimum temperature yesterday: 70 °F (at 10:35 pm)
Average temperature yesterday: 76 °F

High & Low Weather Summary for the Past Weeks

 TemperatureHumidityPressure
High86 °F (Nov 24, 3:15 pm)100% (Nov 24, 5:55 am)30.27 "Hg (Nov 24, 5:55 am)
Low57 °F (Nov 23, 6:15 am)24% (Dec 2, 3:55 pm)29.87 "Hg (Dec 6, 3:35 am)
Average72 °F75%30.07 "Hg
* Reported Nov 22 4:15 pm — Dec 7 4:15 pm, Tampa, Weather by CustomWeather, © 2016

Note: Actual official high and low records may vary slightly from our data, if they occured in-between our weather recording intervals... More about our weather records

Advertising

Tampa Weather History for the Previous 24 Hours

Scroll right to see more
 ConditionsComfort  
Time TempWeatherWind HumidityBarometerVisibility
4:15 pm
Wed, Dec 7
77 °FSunny.7 mph65%30.06 "Hg10 mi
3:55 pm77 °FSunny.6 mph65%30.05 "Hg10 mi
3:35 pm79 °FSunny.6 mph61%30.04 "Hg10 mi
3:15 pm79 °FSunny.6 mph61%30.04 "Hg10 mi
2:55 pm79 °FSunny.7 mph65%30.03 "Hg10 mi
2:35 pm79 °FSunny.6 mph65%30.03 "Hg10 mi
2:15 pm79 °FSunny.6 mph65%30.03 "Hg10 mi
1:55 pm79 °FSunny.6 mph70%30.03 "Hg10 mi
1:35 pm77 °FSunny.7 mph74%30.04 "Hg10 mi
1:15 pm77 °FSunny.8 mph69%30.04 "Hg10 mi
12:55 pm79 °FSunny.6 mph70%30.04 "Hg10 mi
12:35 pm77 °FScattered clouds.No wind65%30.05 "Hg10 mi
12:15 pm77 °FPartly sunny.5 mph69%30.06 "Hg10 mi
11:55 am77 °FPartly sunny.5 mph69%30.07 "Hg10 mi
11:35 am77 °FPartly sunny.3 mph69%30.08 "Hg10 mi
11:15 am75 °FScattered clouds.6 mph74%30.08 "Hg10 mi
10:55 am73 °FScattered clouds.3 mph74%30.08 "Hg10 mi
10:35 am73 °FPartly sunny.No wind74%30.08 "Hg10 mi
10:15 am72 °FScattered clouds.No wind78%30.09 "Hg10 mi
9:15 am70 °FSunny.3 mph88%30.08 "Hg10 mi
8:55 am68 °FSunny.5 mph100%30.07 "Hg10 mi
8:35 am68 °FSunny.6 mph100%30.07 "Hg10 mi
8:15 am68 °FSunny.5 mph100%30.07 "Hg7 mi
7:55 am66 °FSunny.3 mph100%30.06 "Hg7 mi
7:15 am66 °FScattered clouds.5 mph100%30.05 "Hg10 mi
6:55 am64 °FPassing clouds.5 mph100%30.04 "Hg10 mi
6:35 am66 °FClear.No wind100%30.03 "Hg7 mi
6:15 am64 °FFog.No wind100%30.03 "Hg1 mi
5:55 am66 °FClear.No wind100%30.03 "Hg10 mi
5:35 am68 °FClear.No wind100%30.02 "Hg10 mi
5:15 am68 °FClear.No wind100%30.02 "Hg10 mi
4:55 am68 °FPassing clouds.No wind100%30.01 "Hg10 mi
4:35 am68 °FPassing clouds.No wind100%30.01 "Hg7 mi
4:15 am68 °FPassing clouds.No wind100%30.01 "Hg7 mi
3:55 am68 °FFog.No wind100%30.01 "Hg5 mi
3:35 am66 °FFog.No wind100%30.01 "Hg1 mi
3:15 am66 °FFog.No wind100%30.00 "Hg2 mi
2:55 am68 °FFog.No wind100%29.99 "Hg5 mi
2:35 am68 °FFog.No wind100%29.98 "Hg5 mi
2:15 am68 °FClear.No wind100%29.99 "Hg7 mi
1:55 am68 °FFog.No wind100%29.98 "Hg1 mi
1:35 am70 °FFog.No wind100%29.98 "Hg5 mi
1:15 am68 °FFog.No wind100%29.98 "Hg1 mi
12:55 am70 °FFog.No wind100%29.97 "Hg5 mi
12:35 am70 °FFog.No wind100%29.97 "Hg2 mi
12:15 am70 °FFog.No wind100%29.98 "Hg2 mi
11:55 pm
Tue, Dec 6
70 °FFog.No wind100%29.98 "Hg3 mi
11:35 pm70 °FOvercast.No wind100%29.98 "Hg7 mi
11:15 pm72 °FOvercast.No wind94%29.98 "Hg7 mi
10:55 pm70 °FFog.No wind100%29.98 "Hg5 mi
10:35 pm70 °FFog.No wind100%29.98 "Hg5 mi
10:15 pm72 °FClear.No wind94%29.97 "Hg7 mi
9:55 pm72 °FClear.No wind94%29.97 "Hg7 mi
9:15 pm72 °FClear.No wind94%29.97 "Hg7 mi
8:55 pm72 °FClear.No wind94%29.97 "Hg7 mi
8:35 pm72 °FClear.No wind94%29.96 "Hg7 mi
8:15 pm72 °FClear.No wind94%29.96 "Hg7 mi
7:55 pm73 °FClear.No wind89%29.96 "Hg7 mi
7:35 pm73 °FClear.No wind94%29.95 "Hg7 mi
7:15 pm73 °FClear.No wind94%29.94 "Hg7 mi
6:55 pm73 °FClear.3 mph94%29.94 "Hg7 mi
6:35 pm75 °FClear.3 mph89%29.93 "Hg7 mi
6:15 pm75 °FClear.5 mph89%29.93 "Hg7 mi
5:55 pm75 °FPassing clouds.3 mph94%29.92 "Hg7 mi
5:35 pm77 °FClear.3 mph89%29.91 "Hg7 mi
5:15 pm77 °FFog.5 mph89%29.91 "Hg5 mi
Weather by CustomWeather, © 2016

See weather overviewHow to use our weather pages